Voltar ao catálogo

FENGYUN 1C DEB

AtivoLEO
NORAD 31629·DEBRIS·🇨🇳 China

Lançado May 10, 1999 de Taiyuan Satellite Launch Center

Loading…

Próximas Passagens (próximas 24 horas)

TLE

AtualizadoSource: Space-Track

Época: Sep 14, 2026, 04:56 UTC

1 31629U 99025CAK 26257.20559328  .00002736  00000-0  13237-2 0  9998
2 31629 102.1339  46.6475 0102046  53.9931 307.0639 14.17137693983456

Acompanhe FENGYUN 1C DEB em tempo real com AllMySat

Download on the App Store